Index of /uploads/journal_manuscripts/

NameLast ModifiedSize
UpParent Directory
FilePG 001-004 Some epidemiological studies.pdf2020-02-06 11:35 1324k
FilePG 001-006 Composition, constituents and properties.pdf2020-02-06 11:35 2368k
FilePG 001-006 Cryopreservation of camel.pdf2020-02-06 11:35 828k
FilePG 001-006 Pharmacokinetics profile.pdf2020-02-06 11:35 764k
FilePG 001-006 The one-humped camel in southern.pdf2020-02-06 11:35 6276k
FilePG 001-006 Trace elements and heavy.pdf2020-02-06 11:35 848k
FilePG 001-007 The one-humped camel in uganda.pdf2020-02-06 11:35 2900k
FilePG 001-007 Training period and short.pdf2020-02-06 11:35 768k
FilePG 001-008 Experimental mange infection.pdf2020-02-06 11:35 2868k
FilePG 001-008 Parasites of dromedaries and bactrian.pdf2020-02-06 11:35 296k
FilePG 001-008 Parasitisms of Camels.pdf2020-02-06 11:35 588k
FilePG 001-009 A new milking technology.pdf2021-04-03 23:41 656k
FilePG 001-009 Brucella melitensis caused abortion T.pdf2020-02-06 11:35 3064k
FilePG 001-009 Induction of immune response.pdf2020-02-06 11:35 1420k
FilePG 001-012 The one-humped camel.pdf2020-04-27 12:16 2252k
FilePG 001-012 Towards a rational camel.pdf2020-02-06 11:35 404k
FilePG 001-017 The one-humped camel in southern.pdf2020-02-06 11:35 1116k
FilePG 005-008 No evidence of Mycoplasma.pdf2020-02-06 11:35 784k
FilePG 007-009 Prediction equation for estimating.pdf2020-02-06 11:35 664k
FilePG 007-011 Pharmacokinetics and tolerance.pdf2020-02-06 11:35 904k
FilePG 007-014 Husbandry practices of el- kababish.pdf2020-02-06 11:35 552k
FilePG 007-014 Parasitic diseases of camels.pdf2020-02-06 11:35 740k
FilePG 009-009 Gamma-glutamyl.pdf2020-02-06 11:35 456k
FilePG 009-014 Laboratory investigations after eye.pdf2020-02-06 11:35 296k
FilePG 009-014 Work performance of camel.pdf2020-02-06 11:35 3376k
FilePG 009-016 Radiographic studies on the.pdf2020-02-06 11:35 2080k
FilePG 009-020 Influence of Feeding Intake.pdf2020-02-06 11:35 1312k
FilePG 009-023 Camel meat production.pdf2020-02-06 11:35 208k
FilePG 011-013 Immunoradiometric assay.pdf2020-02-06 11:35 956k
FilePG 011-013 Nutrient utilisation and serum.pdf2020-02-06 11:35 528k
FilePG 011-013 Prevalence Of Toxoplasma Final.pdf2020-02-06 11:35 508k
FilePG 011-016 Association of vitamin.pdf2021-04-03 23:45 268k
FilePG 013-015 Trichomonosis in dromedary.pdf2020-04-27 12:18 688k
FilePG 013-016 Architecture of pulmonary.pdf2020-02-06 11:35 2012k
FilePG 013-017 Effects of breed and type.pdf2020-02-06 11:35 296k
FilePG 015-016 The unique properties of camelid IgG.pdf2020-02-06 11:35 500k
FilePG 015-017 Oxidative stress in pregnant.pdf2020-02-06 11:35 656k
FilePG 015-019 Clinico-pathological response.pdf2020-02-06 11:35 1180k
FilePG 015-020 Influence of camel milk.pdf2020-02-06 11:35 428k
FilePG 015-026 Bioactive properties of minor camel.pdf2020-02-06 11:35 320k
FilePG 015-026 Camel milk, the white gold.pdf2020-02-06 11:35 6632k
FilePG 017-019 Effect of urinary acidifiers and alkalizers.pdf2020-02-06 11:35 548k
FilePG 017-020 Rapd fingerprinting for.pdf2020-02-06 11:35 872k
FilePG 017-021 Occurrence and transmission.pdf2020-02-06 11:35 1612k
FilePG 017-022 Morphological and scanning.pdf2020-04-27 12:19 2812k
FilePG 017-024 Comparative transcriptome.pdf2021-04-03 23:49 784k
FilePG 019-020 An outbreak of camel rabies.pdf2020-02-06 11:35 600k
FilePG 019-022 Effects of tramadol on antinociception.pdf2020-02-06 11:35 580k
FilePG 019-023 Amplification and sequencing of energy.pdf2020-02-06 11:35 232k
FilePG 019-023 Dubduba syndrome.pdf2020-02-06 11:35 2488k
FilePG 019-024 Expression analysis of heat.pdf2020-02-06 11:35 772k
FilePG 021-024 Pulmonary lesions of slaughtered.pdf2020-02-06 11:35 2600k
FilePG 021-024 The domestic livestock.pdf2020-02-06 11:35 2076k
FilePG 021-025 Scanning electron microscopic.pdf2020-02-06 11:35 3808k
FilePG 021-025 Use Of Linear Body Measurements In Estimating.pdf2020-02-06 11:35 640k
FilePG 021-026 Effects of feed intake.pdf2020-02-06 11:35 760k
FilePG 021-026 The peculiarities of stomach.pdf2020-02-06 11:35 2156k
FilePG 021-027 Caseous lymphadenitis.pdf2020-02-06 11:35 2060k
FilePG 021-027 Ultrastructural and morphometric studies.pdf2020-02-06 11:35 276k
FilePG 023-027 Sedative, analgesic and biochemical.pdf2020-02-06 11:35 584k
FilePG 023-029 A review on biomarkers.pdf2020-04-27 12:20 424k
FilePG 023-031 Radiographic studies on the.pdf2020-02-06 11:35 3560k
FilePG 025-026 First isolation of ignatzschineria.pdf2020-02-06 11:35 1208k
FilePG 025-029 The one-humped camel and the environment.pdf2020-02-06 11:35 760k
FilePG 025-030 Microbiological characterisation.pdf2020-02-06 11:35 256k
FilePG 025-032 Effects of camel milk on drug.pdf2020-02-06 11:35 308k
FilePG 025-032 ER-α expression in the.pdf2021-04-03 23:51 1936k
FilePG 025-038 Chronic selenosis in camels.pdf2020-02-06 11:35 3508k
FilePG 027-029 A preliminary kinetic study.pdf2020-02-06 11:35 728k
FilePG 027-030 Molecular characterisation of trans.pdf2020-02-06 11:35 1188k
FilePG 027-031 Effect of raw camel milk in.pdf2020-02-06 11:35 124k
FilePG 027-031 Morphometric Analysis Of Heart.pdf2020-02-06 11:35 1852k
FilePG 027-032 Fatty acids profile.pdf2020-02-06 11:35 748k
FilePG 027-034 Architecture of subpleural.pdf2020-02-06 11:35 2416k
FilePG 027-034 Behavioural, hormonal and histopathological.pdf2020-02-06 11:35 2232k
FilePG 029-032 Prevalence of Tuberculosis in Slaughtered.pdf2020-02-06 11:35 664k
FilePG 029-033 Antinociceptive, sedative and cardiopulmonary.pdf2020-02-06 11:35 572k
FilePG 029-036 Flow cytometric analysis of phenotype.pdf2021-04-04 02:28 256k
FilePG 029-040 Species specificity and host.pdf2020-02-06 11:35 212k
FilePG 031-034 Effect of an herbal immune.pdf2020-02-06 11:35 448k
FilePG 031-034 Johne#U2019s disease in one humped.pdf2020-02-06 11:35 2380k
FilePG 031-034 Molecular Cloning.pdf2020-02-06 11:35 892k
FilePG 031-035 prevalence and pathogenesis.pdf2020-02-06 11:35 1556k
FilePG 031-037 Evaluation of microsatellite markers.pdf2020-04-27 12:21 348k
FilePG 033-035 Enzyme #U2013 linked immunoassay.pdf2020-02-06 11:35 372k
FilePG 033-036 Anatomy and histology of the.pdf2020-02-06 11:35 1704k
FilePG 033-036 Prevalence and risk.pdf2020-02-06 11:35 900k
FilePG 033-037 Immunoreactivity of alpha.pdf2021-04-03 23:54 2460k
FilePG 033-037 Subtotal pericardiectomy.pdf2020-02-06 11:35 976k
FilePG 033-040 Enzymatic hydrolysis of camel.pdf2020-02-06 11:35 348k
FilePG 033-048 Characterization of Adjuvants.pdf2020-02-06 11:35 2364k
FilePG 035-036 Toxoplasma gondii infection.pdf2020-02-06 11:35 168k
FilePG 035-038 Serum calcitonin levels.pdf2020-02-06 11:35 980k
FilePG 035-039 Oesophagoscopy and endoscopic aided.pdf2020-02-06 11:35 1164k
FilePG 035-040 Non-carcass components.pdf2020-02-06 11:35 756k
FilePG 035-046 Improving the dromedary antibody.pdf2020-02-06 11:35 1740k
FilePG 037-039 Gross and histopathological.pdf2020-02-06 11:35 2212k
FilePG 037-039 Serum C-terminal parathyroid.pdf2020-02-06 11:35 740k
FilePG 037-039 Susceptibility of bacteria isolate.pdf2020-02-06 11:35 848k
FilePG 037-043 S100 expression in the epididymis.pdf2020-02-06 11:35 312k
FilePG 037-043 Utilisation of some browse.pdf2020-02-06 11:35 1396k
FilePG 037-044 Mortality analysis and herd.pdf2020-02-06 11:35 628k
FilePG 039-040 Mineral and vitamin.pdf2020-02-06 11:35 168k
FilePG 039-043 Preservation of camel milk.pdf2020-02-06 11:35 656k
FilePG 039-045 Evaluation of transtracheal wash.pdf2021-04-03 23:56 2332k
FilePG 039-047 Seasonal studies on morphology.pdf2020-04-27 12:23 6712k
FilePG 041-042 Endoparasitic infestation in camels.pdf2020-02-06 11:35 176k
FilePG 041-044 Application of card agglutination.pdf2020-02-06 11:35 776k
FilePG 041-044 Molecular characterisation.pdf2020-02-06 11:35 280k
FilePG 041-045 Sedative and analgesic.pdf2020-02-06 11:35 1048k
FilePG 041-046 Partial cloning of c-Met cDNA.pdf2020-02-06 11:35 216k
FilePG 041-046 Prevalence of Tuberculosis.pdf2020-02-06 11:34 916k
FilePG 041-047 Sequence analysis of toll like.pdf2020-02-06 11:35 296k
FilePG 041-048 Protective effects of poll gland.pdf2020-02-06 11:35 404k
FilePG 043-044 Use of quinapyramine in the treatment.pdf2020-02-06 11:35 192k
FilePG 045-046 Factors affecting.pdf2020-02-06 11:35 568k
FilePG 045-048 Lymphadenitis caused by corynebacterium.pdf2020-02-06 11:35 260k
FilePG 045-049 On farm testing of camel.pdf2020-02-06 11:35 496k
FilePG 045-049 Use of quinapyramine in the treatment.pdf2020-02-06 11:35 244k
FilePG 045-050 Effect of camel milk on glycemic.pdf2020-02-06 11:35 1264k
FilePG 045-050 Fatty acids composition of dromedary.pdf2020-02-06 11:35 924k
FilePG 045-050 New preliminary.pdf2020-02-06 11:35 1904k
FilePG 047-049 Electrophoretic profile.pdf2020-02-06 11:35 728k
FilePG 047-051 Molecular characterisation of growth(1).pdf2021-04-04 00:06 788k
FilePG 047-051 Molecular characterisation of growth.pdf2021-04-03 23:59 788k
FilePG 047-051 Nerve supply to the manus region.pdf2020-02-06 11:35 1236k
FilePG 047-051 Polymorphisms of the tyrosinase.pdf2020-02-06 11:34 180k
FilePG 047-051 Study of camel meat marketing.pdf2020-02-06 11:35 648k
FilePG 047-052 Evaluation of 5 indirect.pdf2020-02-06 11:35 616k
FilePG 049-052 Angiopoietin-like protein.pdf2020-02-06 11:35 164k
FilePG 049-054 Investigation of altitude.pdf2020-04-27 12:24 368k
FilePG 049-054 Pneumonia in dromedary camels.pdf2020-02-06 11:35 272k
FilePG 049-054 The melatonin receptor in the bactrian camel.pdf2020-02-06 11:35 2704k
FilePG 049-056 Evaluation of sevoflurane anesthesia.pdf2020-02-06 11:35 240k
FilePG 051-052 A note on serologic survey.pdf2020-02-06 11:35 704k
FilePG 051-054 Pathological study on.pdf2020-02-06 11:35 2368k
FilePG 051-055 Effect of oral L-carnitine.pdf2020-02-06 11:35 752k
FilePG 051-055 Localization of estrase I.pdf2020-02-06 11:35 3220k
FilePG 051-057 Milk yield performance.pdf2020-02-06 11:35 2972k
FilePG 051-057 Serum glutathione peroxidase.pdf2020-02-06 11:35 284k
FilePG 053-056 Migratory pattern of raika.pdf2020-02-06 11:35 840k
FilePG 053-057 Glanders in a dromedary camel.pdf2020-02-06 11:35 2104k
FilePG 053-057 Improving mature camel-meat.pdf2020-02-06 11:35 708k
FilePG 053-057 Selected vitamins and fatty acid.pdf2020-02-06 11:35 980k
FilePG 053-057 The comparative study.pdf2020-02-06 11:35 184k
FilePG 053-058 Fatalities in dromedary.pdf2021-04-04 00:02 1756k
FilePG 053-063 Molecular mechanism of hepato-renal.pdf2020-02-06 11:35 212k
FilePG 055-058 Perception of veterinary.pdf2020-02-06 11:35 252k
FilePG 055-059 Genetic aspects for milk.pdf2020-02-06 11:35 1740k
FilePG 055-059 Pathological and serobiochemical.pdf2020-02-06 11:35 2244k
FilePG 055-059 The microflora of teat.pdf2020-02-06 11:35 2004k
FilePG 055-060 Analysis of endotoxin.pdf2020-04-27 12:25 288k
FilePG 057-058 Clinical studies on sarcoptic.pdf2020-02-06 11:35 840k
FilePG 057-060 Post-traumatic buccal.pdf2020-02-06 11:35 1132k
FilePG 057-062 Morphological observation of the larva.pdf2020-02-06 11:35 320k
FilePG 057-063 Effect of oral administration.pdf2020-02-06 11:35 2988k
FilePG 057-064 Sensitivity and fatality.pdf2020-02-06 11:35 2400k
FilePG 059-060 Dermatophytosis in Indian dromedary.pdf2020-02-06 11:35 724k
FilePG 059-061 Investigation of occurrence.pdf2020-02-06 11:35 516k
FilePG 059-061 Skin candidiasis in dromedary.pdf2020-02-06 11:35 2188k
FilePG 059-062 Intrahepatic invasive bile duct.pdf2020-02-06 11:35 2804k
FilePG 059-062 Mineral antioxidant status.pdf2020-02-06 11:35 1024k
FilePG 059-063 Analysis of the expression.pdf2020-02-06 11:35 860k
FilePG 059-063 Distribution and population.pdf2020-02-06 11:35 1368k
FilePG 059-067 Immunomodulatory effect of Escherichia.pdf2021-04-04 00:05 2236k
FilePG 061-063 The effects of the number.pdf2020-02-06 11:35 4328k
FilePG 061-065 Prevalence of external.pdf2020-02-06 11:35 1128k
FilePG 061-066 Morphological study on the.pdf2020-02-06 11:35 1088k
FilePG 061-066 Renal cell carcinoma in a female.pdf2020-02-06 11:35 2012k
FilePG 061-066 Salivary sex steroid hormones.pdf2020-02-06 11:35 904k
FilePG 061-068 Uridine 5-triphosphate (UTP).pdf2020-04-27 12:28 12704k
FilePG 063-063 A case of bilateral fore limb.pdf2020-02-06 11:35 500k
FilePG 063-064 A note on vitamin a, c and e status.pdf2020-02-06 11:35 996k
FilePG 063-065 Comparative pharmacokinetics.pdf2020-02-06 11:35 276k
FilePG 063-067 Fungal flora of the eye.pdf2020-02-06 11:35 340k
FilePG 063-069 Comparative studies on slaughter.pdf2020-02-06 11:35 296k
FilePG 065-066 A note on plasma.pdf2020-02-06 11:35 1028k
FilePG 065-067 Clostridium perfringens type B.pdf2020-02-06 11:35 1044k
FilePG 065-067 Prevalence and histopathological.pdf2020-02-06 11:35 1368k
FilePG 065-068 Gross and histopathologic characteristics of fibropapilloma.pdf2020-02-06 11:34 836k
FilePG 065-068 Serological survey in camels.pdf2020-02-06 11:35 604k
FilePG 065-070 Dimorphic fungi.pdf2020-02-06 11:35 1968k
FilePG 065-070 Endometrial biopsy technique.pdf2020-02-06 11:35 1408k
FilePG 065-072 The role of adjuvant.pdf2020-02-06 11:35 232k
FilePG 067-068 Burn in forelimbs of a camel.pdf2020-02-06 11:34 1380k
FilePG 067-071 In vitro evaluation.pdf2020-02-06 11:35 1048k
FilePG 067-071 Resistotyping of camel skin.pdf2020-02-06 11:35 248k
FilePG 067-072 Assessment of body condition.pdf2020-02-06 11:35 860k
FilePG 067-072 Effect of strategic supplement.pdf2020-02-06 11:35 324k
FilePG 067-073 Reproductive abnormalities.pdf2020-02-06 11:35 1460k
FilePG 069-070 A note on lysozyme activity in.pdf2020-02-06 11:35 852k
FilePG 069-071 A survey of the incidence.pdf2020-02-06 11:35 212k
FilePG 069-071 Prevalence of linguatula serrata.pdf2020-02-06 11:35 584k
FilePG 069-071 Seroprevalence of ppr in camels.pdf2020-02-06 11:35 432k
FilePG 069-072 Normal echocardiographical.pdf2020-02-06 11:35 524k
FilePG 069-075 SNPs and InDels detection.pdf2020-04-27 12:29 1264k
FilePG 069-077 Prevalence, characterisation.pdf2020-02-06 11:35 1212k
FilePG 071-074 Assessment of physiological.pdf2020-02-06 11:35 3184k
FilePG 071-075 Intestinal obstruction in camels.pdf2020-02-06 11:35 3440k
FilePG 071-077 Schematic eye of the adult.pdf2020-02-06 11:35 776k
FilePG 071-079 An analysis of the forestomach.pdf2020-02-06 11:35 236k
FilePG 073-074 Occurrence of fungal otitis.pdf2020-02-06 11:35 544k
FilePG 073-074 Streptomyces mutabilis isolation from.pdf2020-02-06 11:35 496k
FilePG 073-074 Surgical removal of a harrow.pdf2020-02-06 11:35 1060k
FilePG 073-075 Distribution pattern.pdf2020-02-06 11:35 204k
FilePG 073-076 Effect of sex and age.pdf2020-02-06 11:35 1052k
FilePG 073-076 Sequence analysis and phylogenetic.pdf2020-02-06 11:35 484k
FilePG 073-077 Effect of plane of nutrition.pdf2020-02-06 11:35 272k
FilePG 073-077 Some Haematological, Biochemical.pdf2020-02-06 11:35 340k
FilePG 075-077 An outbreak of contagious.pdf2020-02-06 11:35 1312k
FilePG 075-077 Crimean-congo haemorrhagic fever.pdf2021-04-04 00:08 432k
FilePG 075-078 Milk amyloid a, a potential biomarker.pdf2020-02-06 11:35 732k
FilePG 075-079 Cerebrospinal fluid collection.pdf2020-02-06 11:35 164k
FilePG 077-077 Rectal prolapse caused by.pdf2020-02-06 11:35 1040k
FilePG 077-079 Viability of Lactobacillus fermentum.pdf2020-04-27 12:30 268k
FilePG 077-081 Comparative study on camel.pdf2020-02-06 11:35 248k
FilePG 077-084 Therapeutic effects of bokhi.pdf2020-02-06 11:35 324k
FilePG 079-080 Ethnoveterinary practices in camels.pdf2020-02-06 11:35 376k
FilePG 079-081 Tuberculosis in camels.pdf2020-02-06 11:35 1612k
FilePG 079-082 Standard electrocardiographic.pdf2020-02-06 11:35 568k
FilePG 079-083 Serum progesterone analysis.pdf2020-02-06 11:35 360k
FilePG 079-084 Influence of 8 km training.pdf2021-04-04 00:11 300k
FilePG 079-084 Occurrence and pathological study.pdf2020-02-06 11:35 4572k
FilePG 079-086 Morphological characterisation.pdf2020-02-06 11:35 4132k
FilePG 081-082 Mesodiverticular band as cause.pdf2020-02-06 11:35 1392k
FilePG 081-083 A comparative study of renal.pdf2020-02-06 11:35 904k
FilePG 081-084 Capsular typing of Staphylococcus.pdf2020-02-06 11:35 360k
FilePG 081-085 Balantidiasis in dromedary camels.pdf2020-02-06 11:35 248k
FilePG 081-086 Prevalence of bovine tuberculosis.pdf2020-02-06 11:35 516k
FilePG 081-087 Machine milking parameters.pdf2020-02-06 11:35 216k
FilePG 081-087 Parasitic diseases of camels.pdf2020-02-06 11:35 732k
FilePG 081-088 Uridine 5'-monophosphate (UMP).pdf2020-04-27 12:31 2528k
FilePG 083-088 Effectiveness of medicinal herbs.pdf2020-02-06 11:35 288k
FilePG 083-089 Chemical composition and gas.pdf2020-02-06 11:35 596k
FilePG 085-087 Viability assessment of camel.pdf2020-02-06 11:35 2732k
FilePG 085-088 Identification and molecular....heat shock protein.pdf2020-02-06 11:35 624k
FilePG 085-089 Effect of some extenders.pdf2020-02-06 11:35 292k
FilePG 085-089 Effects of manual udder.pdf2020-02-06 11:35 316k
FilePG 085-090 Molecular characterisation of pseudomonas.pdf2020-02-06 11:35 944k
FilePG 085-093 Obstructive urolithiasis in dromedary.pdf2021-04-04 00:13 6752k
FilePG 085-093 Tuareg ethnodiagnostic skill.pdf2020-02-06 11:35 984k
FilePG 087-090 A zoonotic case of camel.pdf2020-02-06 11:35 284k
FilePG 087-092 Chronological classification.pdf2020-02-06 11:35 19872k
FilePG 087-094 Management of the Commonly.pdf2020-02-06 11:35 2340k
FilePG 087-096 Effect of mineral supplementationt.pdf2020-02-06 11:35 1232k
FilePG 089-090 Insulin Content.pdf2020-02-06 11:35 696k
FilePG 089-091 Sea buckthorn or Leh.pdf2020-02-06 11:35 1996k
FilePG 089-092 An over view of bluetongue.pdf2020-02-06 11:35 208k
FilePG 089-092 Molecular identification of tick.pdf2020-02-06 11:35 280k
FilePG 089-096 Ultrastructural and morphometric.pdf2020-04-27 12:32 2432k
FilePG 089-098 Microbial quality and molecular.pdf2020-02-06 11:35 456k
FilePG 091-094 Eimeria leuckarti from dromedaries.pdf2020-02-06 11:35 216k
FilePG 091-094 Gross and histological study.pdf2020-02-06 11:35 4316k
FilePG 091-095 Biodiversity study of the yeast in fresh.pdf2020-02-06 11:35 860k
FilePG 091-095 Effect of replacing organic.pdf2020-02-06 11:35 452k
FilePG 091-097 A histologic and histomorphometric.pdf2020-02-06 11:35 264k
FilePG 091-097 Effect of seasonal dehydration.pdf2020-02-06 11:35 1224k
FilePG 091-101 Identification of Monoclonal.pdf2020-02-06 11:35 1712k
FilePG 093-096 The efficacy of eprinex.pdf2020-02-06 11:35 240k
FilePG 093-097 Parasitic profile of saudi.pdf2020-02-06 11:35 304k
FilePG 095-096 Prozone reaction in an antibody.pdf2021-04-04 00:14 164k
FilePG 095-096 Radiographic Diagnosis.pdf2020-02-06 11:35 3748k
FilePG 095-097 Evaluation of different diagnostic.pdf2020-02-06 11:35 896k
FilePG 095-098 Histological study of the third.pdf2020-02-06 11:35 1756k
FilePG 095-100 First evidence of natural.pdf2020-02-06 11:35 292k
FilePG 097-099 Effects of antibacterial drugs.pdf2020-02-06 11:35 776k
FilePG 097-099 Genetic diversity and relationship.pdf2020-02-06 11:35 980k
FilePG 097-100 Pathological study on liver.pdf2020-02-06 11:35 1612k
FilePG 097-101 The immunophenotype of camel.pdf2021-04-04 00:15 568k
FilePG 097-102 Biophysical and biochemical characteristics.pdf2020-02-06 11:35 340k
FilePG 097-103 Cloning and bioinformatics.pdf2020-04-27 12:33 816k
FilePG 097-105 Ovarian follicle dynamics.pdf2020-02-06 11:35 632k
FilePG 099-102 Anatomical localisation and histology.pdf2020-02-06 11:35 1492k
FilePG 099-102 Some biochemical and hematological.pdf2020-02-06 11:35 728k
FilePG 099-103 Rectal prolapse in camels.pdf2020-02-06 11:35 252k
FilePG 099-104 Treatment and prevention.pdf2020-02-06 11:35 960k
FilePG 099-105 Changes in body fluid compartments.pdf2020-02-06 11:35 1240k
FilePG 099-106 Morphological and morphometric study.pdf2020-02-06 11:35 1908k
FilePG 099-108 Purification and thermal denaturation.pdf2020-02-06 11:35 188k
FilePG 101-102 A note on experimentally.pdf2020-02-06 11:35 952k
FilePG 101-102 Prevalence of sarcocystosis in dromedary.pdf2020-02-06 11:35 152k
FilePG 101-103 Surgical management.pdf2020-02-06 11:35 9620k
FilePG 101-106 Haematobiochemical profiles.pdf2020-02-06 11:35 916k
FilePG 103-105 Occurrence of gastrointestinal helminthes.pdf2020-02-06 11:35 340k
FilePG 103-106 Anatomical and histochemical.pdf2020-02-06 11:35 1692k
FilePG 103-106 Prevleance of rotavirus.pdf2021-04-04 00:16 960k
FilePG 103-107 Evaluation of a continuous rate.pdf2020-02-06 11:35 248k
FilePG 103-107 Parainguinal cryptorchidectomy.pdf2020-02-06 11:35 1384k
FilePG 103-108 Surgical Affections of musclo-I.pdf2020-02-06 11:35 14412k
FilePG 103-109 Protein Polymorphism.pdf2020-02-06 11:35 1092k
FilePG 103-109 Studies on morphology of hypothalamus.pdf2020-02-06 11:35 5732k
FilePG 105-108 Non-suppurative meningoencephalits.pdf2020-02-06 11:35 2000k
FilePG 105-110 Composition and heat stability.pdf2020-02-06 11:35 976k
FilePG 105-110 Effect of heat treatments.pdf2020-04-27 12:34 920k
FilePG 105-110 Whole blood stimulation.pdf2020-02-06 11:35 256k
FilePG 107-108 Physical restraining technique.pdf2020-02-06 11:35 628k
FilePG 107-109 Scanning electron microscopic.pdf2021-04-04 00:19 984k
FilePG 107-110 Effect of physiological.pdf2020-02-06 11:35 1160k
FilePG 107-111 Anatomical features of nasal cavity.pdf2020-02-06 11:35 2368k
FilePG 107-112 Haematology and serum#U2026month of age.pdf2020-02-06 11:35 848k
FilePG 107-113 Effect of raw camel milk in type.pdf2020-02-06 11:35 1088k
FilePG 107-114 Study on the epidemiology.pdf2020-02-06 11:35 1924k
FilePG 109-110 A comparative study.pdf2020-02-06 11:35 132k
FilePG 109-110 Caesarean in five.pdf2020-02-06 11:35 324k
FilePG 109-111 Foetal arthrogryposis.pdf2020-02-06 11:35 824k
FilePG 109-111 Squamous cell carcinoma.pdf2020-02-06 11:35 1292k
FilePG 109-113 Pathological study of ovaries.pdf2020-02-06 11:35 2896k
FilePG 109-121 Concentrations of nutrients in six.pdf2020-02-06 11:35 220k
FilePG 111-112 Prominent prescapular caseous.pdf2021-04-04 00:19 1224k
FilePG 111-113 Concentrations in D- and L-lactate.pdf2020-02-06 11:35 232k
FilePG 111-113 The one-humped camel.pdf2020-02-06 11:35 776k
FilePG 111-114 Some aspects of calcium and.pdf2020-02-06 11:35 1152k
FilePG 111-116 A histological and histochemical study.pdf2020-02-06 11:35 204k
FilePG 111-116 Validation of a heterologous.pdf2020-02-06 11:35 980k
FilePG 111-119 Bioinformatics of uridine deoxyuridine.pdf2020-04-27 12:36 3960k
FilePG 113-115 A rare case of intramuscular.pdf2021-04-04 00:20 1360k
FilePG 113-115 Arterial vascularisation of the.pdf2020-02-06 11:35 1804k
FilePG 113-115 Serological survey, an important.pdf2020-02-06 11:35 216k
FilePG 113-116 Magnetic resonance imaging.pdf2020-02-06 11:35 824k
FilePG 113-120 Health problems.pdf2020-02-06 11:35 824k
FilePG 115-118 Comparative study of anatomy and histology.pdf2020-02-06 11:35 3948k
FilePG 115-118 Effect of breed on haemogram.pdf2020-02-06 11:35 988k
FilePG 115-119 A new understanding of bactrian.pdf2020-02-06 11:35 264k
FilePG 115-119 Seasonal variations of the plasma.pdf2020-02-06 11:35 1196k
FilePG 115-120 Extra-limital records of the.pdf2020-02-06 11:35 4456k
FilePG 115-121 In vitro differentiation.pdf2020-02-06 11:35 2076k
FilePG 117-119 A study on tear fluid secretion.pdf2020-02-06 11:35 324k
FilePG 117-120 Morphometric measurements of digital bones.pdf2020-02-06 11:35 576k
FilePG 117-121 An outbreak of caseous.pdf2021-04-04 00:22 1468k
FilePG 117-121 Serum biochemical changes associated.pdf2020-02-06 11:35 984k
FilePG 117-122 Cystoisospora orlovi.pdf2020-02-06 11:35 3592k
FilePG 117-122 Histochemical and immunohistochemical.pdf2020-02-06 11:35 3684k
FilePG 117-122 Morphologic Charatersation.pdf2020-02-06 11:35 2728k
FilePG 119-121 Digital angiography of camel.pdf2020-02-06 11:35 648k
FilePG 119-123 Surgical management of unilateral.pdf2020-02-06 11:35 1412k
FilePG 121-124 Identification and characterisation.pdf2020-02-06 11:35 692k
FilePG 121-124 Serological response of dromedary camels.pdf2020-02-06 11:35 180k
FilePG 121-124 Serum copper levels in dromedaries.pdf2020-02-06 11:35 1228k
FilePG 121-125 Anatomical and histochemical features.pdf2020-02-06 11:35 220k
FilePG 121-125 Gross and Histological study on the adrenal.pdf2020-02-06 11:35 3180k
FilePG 121-126 Microstructural and ultrastructural.pdf2020-02-06 11:35 3232k
FilePG 121-128 The cardiac biomarkers troponin.pdf2020-04-27 12:37 472k
FilePG 123-125 Is low efficiency under ai in camel.pdf2020-02-06 11:35 944k
FilePG 123-127 Microscopic Evaluation kidney-heart.pdf2020-02-06 11:35 844k
FilePG 123-128 Pharmacokinetic of tramadol.pdf2020-02-06 11:35 368k
FilePG 123-128 The cardiac biomarker.pdf2020-02-06 11:35 3112k
FilePG 123-129 Gross and histological study.pdf2020-02-06 11:35 5312k
FilePG 123-130 Biochemical characterisation of camel.pdf2020-02-06 11:35 304k
FilePG 125-127 Isolation of defensin gene.pdf2020-02-06 11:35 720k
FilePG 125-127 Standing castration in camels.pdf2020-02-06 11:35 1604k
FilePG 125-128 Another case of hepatic.pdf2020-02-06 11:35 184k
FilePG 125-129 Preliminary report on some.pdf2020-02-06 11:35 1192k
FilePG 125-130 Trypanosoma evansi in a dromedary.pdf2021-07-27 04:20 476k
FilePG 125-131 A clinical study on occurrence.pdf2020-02-06 11:35 3516k
FilePG 127-128 Agglutination of camel.pdf2020-02-06 11:35 904k
FilePG 127-130 Social profile of came.pdf2020-02-06 11:35 648k
FilePG 127-131 Applied anatomy of the maxillofacial.pdf2020-02-06 11:35 240k
FilePG 127-131 Numerical simulation of inspiratory.pdf2020-02-06 11:35 1996k
FilePG 129-131 Serological survey of antibodies.pdf2020-02-06 11:35 936k
FilePG 129-132 Detection of the status of acaricide.pdf2020-02-06 11:35 180k
FilePG 129-132 Listeriosis in south american.pdf2020-02-06 11:35 652k
FilePG 129-133 A Quantitative study.pdf2020-02-06 11:35 844k
FilePG 129-133 Use of blood analytes in assessment.pdf2020-02-06 11:35 1036k
FilePG 129-134 Polymorphism in coa.pdf2020-02-06 11:35 688k
FilePG 129-134 Ultrasonography of the digestive.pdf2020-04-27 12:38 1180k
FilePG 131-133 Histochemistry of dorsal lacrimal gland.pdf2020-02-06 11:35 2580k
FilePG 131-134 Determination of the bioactive.pdf2020-02-06 11:35 260k
FilePG 131-134 Exploration of intestinal.pdf2020-02-06 11:35 1348k
FilePG 131-135 The activity of glycosidases.pdf2021-07-27 04:21 308k
FilePG 131-138 Mange in the camelids.pdf2020-02-06 11:35 212k
FilePG 131-138 Role of camel in the pastoral economy.pdf2020-02-06 11:35 1172k
FilePG 133-134 Seroprevalence of brucellosis.pdf2020-02-06 11:35 888k
FilePG 133-137 Osteometric evaluation of the metapodial.pdf2020-02-06 11:35 320k
FilePG 133-139 Advanced imaging studies on normal.pdf2020-02-06 11:35 1736k
FilePG 133-140 Expression profiles.pdf2020-02-06 11:35 656k
FilePG 133-142 Identification of microsatellites.pdf2020-02-06 11:35 204k
FilePG 135-136 Trace mineral profiles.pdf2020-02-06 11:35 964k
FilePG 135-137 Distribution of arginase in tissues.pdf2020-02-06 11:35 1180k
FilePG 135-137 Serological evidence of epizootic.pdf2020-02-06 11:35 668k
FilePG 135-138 Gross and scanning electron microscopic.pdf2020-04-27 12:39 1904k
FilePG 135-138 Sero-epidemiology of camel.pdf2020-02-06 11:35 284k
FilePG 135-139 Investigation into the neurogenesis.pdf2020-02-06 11:35 2144k
FilePG 135-140 Hygienic quality of Egyptian.pdf2020-02-06 11:35 1008k
FilePG 135-140 Pharmacokinetics and Bioavailabilty.pdf2020-02-06 11:35 800k
FilePG 135-142 Mycoplasmosis in camelids.pdf2020-02-06 11:35 968k
FilePG 137-139 Refrigeratory preservation.pdf2020-02-06 11:35 1008k
FilePG 137-141 Plasma from Escherichia coli.pdf2021-07-27 04:22 816k
FilePG 139-140 Castration of camels through prescrotal.pdf2020-04-27 12:40 1364k
FilePG 139-142 Ammonia emission from.pdf2020-02-06 11:35 1308k
FilePG 139-142 Revalence of linguatula serrata.pdf2020-02-06 11:35 172k
FilePG 139-143 Detection of hypermucoviscous.pdf2020-02-06 11:35 1052k
FilePG 139-144 In situ dry matter and fibre.pdf2020-02-06 11:35 1272k
FilePG 139-145 Seroepidemiological studies.pdf2020-02-06 11:35 560k
FilePG 139-146 A systemic review on ultrasonographic.pdf2020-02-06 11:35 348k
FilePG 141-143 Comparative study on some biochemical.pdf2020-02-06 11:35 928k
FilePG 141-144 Macroanatomy of basal nuclei in.pdf2020-02-06 11:35 1056k
FilePG 141-144 Plasma levels of gastrin.pdf2020-02-06 11:35 740k
FilePG 141-144 Proteome profile of the hump.pdf2020-09-04 03:44 1704k
FilePG 141-144 Surgical management of urinary retension.pdf2020-02-06 11:35 2728k
FilePG 141-147 Correlation of single nucleotide.pdf2020-02-06 11:35 1212k
FilePG 141-150 A preliminary characterisation.pdf2020-02-06 11:35 1416k
FilePG 143-146 Prevalence, clinico-pathology.pdf2020-02-06 11:35 432k
FilePG 143-147 Acid-base balance.pdf2021-07-27 04:23 332k
FilePG 143-147 Camel milk against Autism.pdf2020-02-06 11:35 468k
FilePG 143-147 Neuropeptides in the pancreas.pdf2020-02-06 11:35 168k
FilePG 143-148 The disposition of heptaminol in camels.pdf2020-02-06 11:35 512k
FilePG 145-147 Physical Biochemical.pdf2020-02-06 11:35 740k
FilePG 145-148 Constraints experienced.pdf2020-02-06 11:35 1200k
FilePG 145-148 Spinose ear ticks and brain.pdf2020-02-06 11:35 1636k
FilePG 145-149 Clinicobiochemical and postmortem.pdf2020-02-06 11:35 4008k
FilePG 145-149 Studies on sexual behaviour.pdf2020-02-06 11:35 1740k
FilePG 145-153 Seasonal changes in the anatomy.pdf2020-02-06 11:35 724k
FilePG 145-158 Bioinformatics of pyrimidine.pdf2020-09-04 03:46 6548k
FilePG 147-150 Prevalence rate and composition.pdf2020-02-06 11:35 264k
FilePG 147-150 Studies on seasonal prevalence.pdf2020-02-06 11:35 1456k
FilePG 147-152 Dubduba syndrome.pdf2020-02-06 11:35 3600k
FilePG 147-152 Effects of diet supplementation.pdf2020-02-06 11:35 1212k
FilePG 149-151 Biometry of frozen-thawed.pdf2020-02-06 11:35 284k
FilePG 149-151 The pharmacokinetics and pharmacodynamics.pdf2020-02-06 11:35 236k
FilePG 149-152 Clostridium perfringens.pdf2020-02-06 11:35 480k
FilePG 149-152 Effect of anthelmintic.pdf2020-02-06 11:35 1204k
FilePG 149-153 Effect of buserelin on follicular.pdf2020-02-06 11:35 1084k
FilePG 149-155 Influence of age and sex.pdf2020-02-06 11:35 840k
FilePG 149-156 Evaluation of preslaughter stress.pdf2020-02-06 11:35 1608k
FilePG 149-159 Etio-pathology and therapeutics.pdf2021-07-27 04:24 364k
FilePG 151-153 Histochemistry of nictitans.pdf2020-02-06 11:35 3240k
FilePG 151-154 Choroid plexus papilloma.pdf2020-02-06 11:35 280k
FilePG 151-155 Primarily human pathogenic.pdf2020-02-06 11:35 1920k
FilePG 151-156 Chlortetracycline in serum and milk.pdf2020-02-06 11:35 292k
FilePG 151-158 Evaluation of halothane anesthesia.pdf2020-02-06 11:35 864k
FilePG 153-155 Natural acquired Clostridium perfringens.pdf2020-02-06 11:35 336k
FilePG 153-155 Observations on the validity.pdf2020-02-06 11:35 1240k
FilePG 153-156 Therapeutic efficacy of enrofloxacin.pdf2020-02-06 11:35 1040k
FilePG 153-157 Molecular characterization of Kachchhi.pdf2020-02-06 11:35 540k
FilePG 153-160 Renal expression and functions.pdf2020-02-06 11:34 4340k
FilePG 153-162 Linear and angular biometric.pdf2020-02-06 11:35 4388k
FilePG 155-156 Multinodular thyroid gland.pdf2020-02-06 11:35 284k
FilePG 155-160 Mucosal-associated lymphoid.pdf2020-02-06 11:35 1988k
FilePG 155-163 The topography and the microscopic structure.pdf2020-02-06 11:35 7848k
FilePG 157-157 Atresia ilei in a newborn.pdf2020-02-06 11:35 1104k
FilePG 157-158 Facial paralysis, glossoplegia.pdf2020-02-06 11:35 1144k
FilePG 157-161 Variability of vitamin E concentration.pdf2020-02-06 11:35 456k
FilePG 157-162 Prevalence of inflammatory conditions.pdf2020-02-06 11:35 276k
FilePG 157-162 Teat characteristics of indian.pdf2020-02-06 11:35 2028k
FilePG 157-163 In vitro sensitivity.pdf2020-02-06 11:35 872k
FilePG 159-160 Management of dystocia in a dromedary.pdf2020-02-06 11:35 1464k
FilePG 159-161 Efficacy of herd-specific.pdf2020-02-06 11:35 424k
FilePG 159-161 The most important dromedary.pdf2020-02-06 11:35 516k
FilePG 159-162 Investigations of wry-neck.pdf2020-02-06 11:35 1324k
FilePG 159-163 Biomarkers of infection.pdf2020-09-04 03:49 388k
FilePG 161-166 The arterial vascularisation.pdf2020-02-06 11:35 3952k
FilePG 161-168 Immunohistochemical localization.pdf2021-07-27 04:25 8516k
FilePG 163-163 Post- mortem observations.pdf2020-02-06 11:35 976k
FilePG 163-165 Determination of glycated.pdf2020-02-06 11:35 288k
FilePG 163-165 The efficiency of bovine.pdf2020-02-06 11:35 528k
FilePG 163-167 Control of hazardous microorganisms.pdf2020-02-06 11:35 1272k
FilePG 163-167 Sweat-gland-tumour.pdf2020-02-06 11:35 188k
FilePG 163-168 Comparative transcriptome analysis (1).pdf2020-02-06 11:35 172k
FilePG 163-168 Production of a caseous lymphadenitis.pdf2020-02-06 11:35 1048k
FilePG 163-169 Determination of pesticide and antibiotic.pdf2020-02-06 11:35 364k
FilePG 165-167 Bacteriological studies in camel(1).pdf2020-02-06 11:35 280k
FilePG 165-167 Bacteriological studies in camel.pdf2020-02-06 11:35 280k
FilePG 165-168 Carotid lateralization.pdf2020-02-06 11:35 2796k
FilePG 165-169 Diseases and causes of mortality.pdf2020-02-06 11:35 1268k
FilePG 165-171 Investigation on biochemical parameters.pdf2020-09-04 03:50 380k
FilePG 167-170 Prevalence of cryptosporidium.pdf2020-02-06 11:35 1004k
FilePG 167-171 Topographic anatomy, blood.pdf2020-02-06 11:35 896k
FilePG 167-172 Anatomical and histochemical.pdf2020-02-06 11:35 1480k
FilePG 167-172 Genetic characterization.pdf2020-02-06 11:35 596k
FilePG 169-172 Chronic peritonitis in dromedary.pdf2020-02-06 11:35 208k
FilePG 169-172 Microbiological characterisation.pdf2020-02-06 11:35 1224k
FilePG 169-174 Demonstration of hepatoprstective.pdf2020-02-06 11:35 864k
FilePG 169-174 Effects of acute synovitis.pdf2021-07-27 04:26 356k
FilePG 169-174 Observations on semen collection.pdf2020-02-06 11:35 240k
FilePG 169-175 Anatomical and ultrasonographical.pdf2020-02-06 11:35 3276k
FilePG 169-180 Morphological and immunological.pdf2020-02-06 11:35 8400k
FilePG 171-172 Calf Mortality in.pdf2020-02-06 11:35 780k
FilePG 171-177 Uterine histopathological.pdf2020-02-06 11:35 2828k
FilePG 171-179 Effect of road transportation.pdf2020-02-06 11:35 272k
FilePG 173-174 Effect of Enrofloxacin.pdf2020-02-06 11:35 836k
FilePG 173-174 Haemato-Biochemical Changes.pdf2020-02-06 11:35 748k
FilePG 173-176 Klebsiella oxytoca isolated from nostrils.pdf2020-09-04 03:52 996k
FilePG 173-177 Associations of bacterial isolation.pdf2020-02-06 11:35 188k
FilePG 173-178 Comparative pharmacokinetics.pdf2020-02-06 11:35 660k
FilePG 173-178 Microbiological studies on camel.pdf2020-02-06 11:35 1272k
FilePG 173-180 Antioxidants role of camel milk.pdf2020-02-06 11:35 296k
FilePG 173-180 Morphology of the lingual.pdf2020-02-06 11:35 7744k
FilePG 175-176 Investigation of the incubation.pdf2021-07-27 04:27 228k
FilePG 175-178 Estimation of somatic cell count.pdf2020-02-06 11:35 236k
FilePG 175-178 Milk Prodduction Potential.pdf2020-02-06 11:35 844k
FilePG 175-180 Staphylococcal subclinical mastitis.pdf2020-02-06 11:35 276k
FilePG 175-181 Economic viability of camel breeding.pdf2020-02-06 11:35 952k
FilePG 175-182 Immunohistochemical studies.pdf2020-02-06 11:35 2056k
FilePG 177-181 Management of atypical mandibular.pdf2020-02-06 11:35 4816k
FilePG 177-182 Evaluation of the sanitary.pdf2021-07-27 04:28 424k
FilePG 177-183 Camel milk alleviates alcohol-induced.pdf2020-09-04 03:55 436k
FilePG 179-181 Hormonal treatments for inducing.pdf2020-02-06 11:35 1216k
FilePG 179-184 Camel Rearing Practices.pdf2020-02-06 11:35 1292k
FilePG 179-184 Clinical findings and reproductive.pdf2020-02-06 11:35 340k
FilePG 179-184 Computed tomography and cross-sectional.pdf2020-02-06 11:35 2728k
FilePG 179-187 Assessment of trace elements.pdf2020-02-06 11:35 228k
FilePG 181-182 Recollection camel milk proteins.pdf2020-02-06 11:35 256k
FilePG 181-184 Effect of coagulants on preparation.pdf2020-02-06 11:35 1712k
FilePG 181-187 Adenocarcinoma in the genital tract.pdf2020-02-06 11:35 2940k
FilePG 183-184 Mycobacterial infections.pdf2021-07-27 04:29 224k
FilePG 183-185 Prevalence of Trypanosoma.pdf2020-02-06 11:35 624k
FilePG 183-186 A report of seroprevalence.pdf2020-02-06 11:35 668k
FilePG 183-186 Comparative evaluation.pdf2020-02-06 11:35 1024k
FilePG 183-188 Molecular cloning and tissue.pdf2020-02-06 11:35 864k
FilePG 183-190 Physio-biohemical change in the male.pdf2020-02-06 11:35 1312k
FilePG 183-191 Clinical and ultrasonographic.pdf2020-02-06 11:35 2256k
FilePG 185-186 Dystocia in she camel and its correction.pdf2020-02-06 11:35 236k
FilePG 185-188 Effect of draught on speed, power.pdf2020-02-06 11:35 232k
FilePG 185-190 Distribution and Density.pdf2020-02-06 11:35 9392k
FilePG 185-190 Ocular ultrasonography in camels.pdf2021-07-27 04:30 324k
FilePG 185-192 A pilot study alpaca fiber.pdf2020-02-06 11:35 952k
FilePG 185-192 Deoxyuridine 5-monophosphate (dUMP).pdf2020-09-04 03:57 3600k
FilePG 187-189 Certain morphometrical studies.pdf2020-02-06 11:35 2464k
FilePG 187-189 Scanning electron microscope.pdf2020-02-06 11:35 1376k
FilePG 187-190 Mean haematological characteristics.pdf2020-02-06 11:35 556k
FilePG 187-191 Surgical management of fractures.pdf2020-02-06 11:35 272k
FilePG 189-190 Management of mandible fractures.pdf2020-02-06 11:35 168k
FilePG 189-191 Identification and molecular cloning.pdf2020-02-06 11:35 308k
FilePG 189-193 Comparative biochemical and mineral.pdf2020-02-06 11:35 336k
FilePG 189-193 Ethanol stability of alxa bactrian.pdf2020-02-06 11:35 348k
FilePG 189-197 Tumours in dromedary camels.pdf2021-04-04 02:35 11968k
FilePG 191-193 Effect of ascorbic acid.pdf2020-02-06 11:35 524k
FilePG 191-193 Study on physical properties.pdf2020-02-06 11:35 184k
FilePG 191-196 Molecular characterization of Paraflagella.pdf2020-02-06 11:35 1472k
FilePG 191-196 Pathological aspects of vasa.pdf2021-07-27 04:32 6256k
FilePG 191-198 Electron microscopic Studies of lumbar.pdf2020-02-06 11:35 4536k
FilePG 191-200 Laboratory and field investigations.pdf2020-02-06 11:35 1512k
FilePG 193-196 Percutaneous ultrasound-guided.pdf2020-02-06 11:35 620k
FilePG 193-197 A case of hepatic cysticercosis.pdf2020-02-06 11:35 2204k
FilePG 193-197 Effect of midazolam sedation.pdf2020-02-06 11:35 288k
FilePG 193-199 Differenting Alpaca.pdf2020-02-06 11:35 1880k
FilePG 193-200 Enzymatic and antioxidant activity.pdf2020-09-04 03:59 812k
FilePG 193-205 The one-humped camel in the anglo.pdf2020-02-06 11:35 256k
FilePG 195-196 Surgical management of soft.pdf2020-02-06 11:35 152k
FilePG 195-198 Milk production potential.pdf2020-02-06 11:35 228k
FilePG 195-200 Effect of feeding different.pdf2020-02-06 11:35 612k
FilePG 195-200 Socio-economic profile of Raika.pdf2020-02-06 11:34 464k
FilePG 197-200 Clinical evaluation of ketamine.pdf2020-02-06 11:35 508k
FilePG 197-200 Oesophageal obstruction in dromedary.pdf2021-07-27 04:33 1712k
FilePG 197-202 Gross anatomy of the liagments.pdf2020-02-06 11:35 14624k
FilePG 197-206 The effect of melarsenoxyde.pdf2020-02-06 11:35 1780k
FilePG 199-200 Work performance of dromedary.pdf2020-02-06 11:35 200k
FilePG 199-202 Effect of feeding different levels.pdf2020-02-06 11:35 188k
FilePG 199-204 Camel dermatophilosis.pdf2020-02-06 11:35 2052k
FilePG 199-208 Danofloxacin and marbofloxacin activity.pdf2020-02-06 11:35 516k
FilePG 199-210 Preparation of anti-diarrhea(1).pdf2020-02-06 11:35 1212k
FilePG 201-203 A retrospective clinical.pdf2020-02-06 11:35 544k
FilePG 201-205 Camel market channels in the.pdf2020-02-06 11:35 1132k
FilePG 201-205 Comparison of ketamine.pdf2020-02-06 11:35 544k
FilePG 201-205 Proteome profiles of hypothalamus.pdf2020-02-06 11:35 240k
FilePG 201-206 Anatomical study on intrahepatic.pdf2020-02-06 11:35 2344k
FilePG 201-206 Genetic polymorphism.pdf2020-09-04 04:01 1056k
FilePG 201-207 Relationship of leptin.pdf2020-02-06 11:35 400k
FilePG 201-210 Treatment of camel dermatophytosis.pdf2021-07-27 04:34 1464k
FilePG 203-208 Detection of genetic variations.pdf2020-02-06 11:35 500k
FilePG 205-207 Experimental Evaluation of Propofol.pdf2020-02-06 11:35 540k
FilePG 205-208 Molecular survey for the presence of Corynebacterium.pdf2020-02-06 11:35 912k
FilePG 207-208 Camel market channels in the.pdf2020-02-06 11:35 1164k
FilePG 207-208 Microfilariasis in a camel.pdf2020-02-06 11:35 784k
FilePG 207-208 Middle east respiratory.pdf2020-09-04 04:02 232k
FilePG 207-210 Disease conditions of camels.pdf2020-02-06 11:35 1224k
FilePG 207-211 A review of anesthetic drugs.pdf2020-02-06 11:35 180k
FilePG 207-212 Effect of high zinc dose.pdf2020-02-06 11:35 496k
FilePG 207-218 Proteomic characterisation of serum.pdf2020-02-06 11:35 204k
FilePG 209-210 Are dromedaries a possible.pdf2020-02-06 11:35 360k
FilePG 209-210 Surgical management of hypospadias.pdf2020-02-06 11:35 2052k
FilePG 209-210 Vasectomy in Dromedary.pdf2020-02-06 11:35 1024k
FilePG 209-211 A case of endocardial fibroelastosis.pdf2020-09-04 04:04 1480k
FilePG 209-212 Assessment of nutritional status.pdf2020-02-06 11:35 464k
FilePG 209-212 Fatigue endurance of camel in.pdf2020-02-06 11:35 2036k
FilePG 209-212 Identification and molecular Cloning.pdf2020-02-06 11:35 884k
FilePG 209-216 Effect of age on quality characteristics.pdf2020-02-06 11:35 300k
FilePG 211-212 A note on survey of ethnoveterinary.pdf2020-02-06 11:35 1192k
FilePG 211-215 The epidemiology of physocephalosis.pdf2020-02-06 11:35 2164k
FilePG 211-216 Cryopreservation of dromedary.pdf2020-02-06 11:35 324k
FilePG 211-217 Research on distribution.pdf2020-02-06 11:35 672k
FilePG 211-218 Quality characteristics.pdf2021-07-27 04:35 392k
FilePG 211-220 Camel milk efficiency.pdf2020-02-06 11:35 1668k
FilePG 213-215 Haematological studies in late.pdf2020-09-04 04:05 436k
FilePG 213-215 Histology and histometry of different.pdf2020-02-06 11:35 2584k
FilePG 213-216 Amplification, cloning and sequence.pdf2020-02-06 11:35 816k
FilePG 213-217 Comparative performance study.pdf2020-02-06 11:35 240k
FilePG 213-218 Q fever in camelids.pdf2020-02-06 11:35 616k
FilePG 215-217 The detection of leptospira.pdf2020-02-06 11:35 748k
FilePG 217-219 Epidemiological study on haemoparasites.pdf2020-02-06 11:35 344k
FilePG 217-220 Effect of extenders on motility.pdf2020-02-06 11:35 252k
FilePG 217-221 Laboratory tests in dromedary.pdf2020-02-06 11:35 776k
FilePG 217-222 Efficacy of midazolam-propofol.pdf2020-02-06 11:35 288k
FilePG 217-224 In-Vitro capacitation of camel.pdf2020-09-04 04:06 624k
FilePG 217-228 Effect of some nutritional.pdf2020-02-06 11:35 776k
FilePG 219-221 The first molecular investigation.pdf2020-02-06 11:35 892k
FilePG 219-222 Effect of ficin enzyme on semen.pdf2020-02-06 11:35 196k
FilePG 219-222 Evaluation of tail curling.pdf2020-02-06 11:35 596k
FilePG 219-223 Peste des petits ruminants.pdf2020-02-06 11:35 1208k
FilePG 219-224 Protective effects of urine.pdf2021-07-27 04:36 2944k
FilePG 219-224 The isolation, culture.pdf2020-02-06 11:35 248k
FilePG 221-224 A regional outbreak of contagious.pdf2020-02-06 11:35 1792k
FilePG 221-226 Investigation of distribution.pdf2020-02-06 11:35 3200k
FilePG 221-230 A histologic and histomorphometric study.pdf2020-02-06 11:35 2524k
FilePG 223-225 Filamentous fungi isolated.pdf2020-02-06 11:35 252k
FilePG 223-226 Vaginal electrical resistance.pdf2020-02-06 11:35 1572k
FilePG 223-227 Localization of arylsulfatase II.pdf2020-02-06 11:35 1636k
FilePG 225-228 Concurrent infection of coccidiosis.pdf2020-02-06 11:35 2856k
FilePG 225-228 Cutaneous alternariosis in dromedary.pdf2020-02-06 11:35 2816k
FilePG 225-229 Treatment of Paratuberculosis.pdf2020-02-06 11:35 10064k
FilePG 225-230 Pharmacokinetics of cefquinome.pdf2020-02-06 11:35 196k
FilePG 225-232 Protective effects of camel.pdf2021-07-27 04:37 2068k
FilePG 227-228 A note on effect of ploughing.pdf2020-02-06 11:35 740k
FilePG 227-231 Genotyping of S. Aureus obtained.pdf2020-02-06 11:35 260k
FilePG 227-232 Morpho-histological Investigation.pdf2020-02-06 11:35 2860k
FilePG 229-233 Performance of lactating dromedary.pdf2020-02-06 11:35 640k
FilePG 229-234 Epidemiological investigation.pdf2020-02-06 11:35 288k
FilePG 229-234 Rumen degradability.pdf2020-02-06 11:35 716k
FilePG 229-262 The one-humped camel in eritrea and ethiopia.pdf2021-01-02 04:50 5148k
FilePG 231-234 Epidemiological aspects of camel.pdf2020-02-06 11:35 252k
FilePG 231-235 Diaplacental infection of a Bactrian.pdf2020-02-06 11:35 228k
FilePG 231-236 Histomorphometric evaluation of dromedarian.pdf2020-02-06 11:35 2272k
FilePG 233-235 Natural trypanosomosis in.pdf2020-02-06 11:35 2196k
FilePG 233-240 Electronic nose technology.pdf2021-07-27 04:38 1084k
FilePG 233-240 Isolation and molecular characterisation.pdf2020-02-06 11:35 272k
FilePG 235-238 Features of mitochondrial DNA.pdf2020-02-06 11:35 244k
FilePG 235-240 Effects of hydration status on osmolality.pdf2020-02-06 11:35 2000k
FilePG 235-242 Reproductive performance of dromedary.pdf2020-02-06 11:35 600k
FilePG 235-244 The effect of an omega.pdf2020-02-06 11:35 900k
FilePG 237-239 A survey on the mandible.pdf2020-02-06 11:35 480k
FilePG 237-243 A morphometric study.pdf2020-02-06 11:35 228k
FilePG 237-244 Cystic Echinococcosis in dromedary.pdf2020-02-06 11:35 4488k
FilePG 239-241 Camel milk an-advantage.pdf2020-02-06 11:35 812k
FilePG 239-245 Haematology, biochemistry and blood.pdf2020-02-06 11:35 408k
FilePG 239-245 Pharmacokinetics of cefquinome.pdf2020-02-06 11:35 380k
FilePG 241-243 Craniometrical studies on the.pdf2020-02-06 11:35 404k
FilePG 241-244 A comparative study on serum.pdf2020-02-06 11:35 304k
FilePG 241-246 Molecular modeling and docking.pdf2020-02-06 11:35 292k
FilePG 243-246 Study on atrial fibrillation.pdf2020-02-06 11:35 820k
FilePG 243-247 Skin candidiasis (thikria).pdf2020-02-06 11:35 27184k
FilePG 245-248 First report on incidence.pdf2020-02-06 11:35 748k
FilePG 245-248 Transcriptome analysis of renal.pdf2021-12-13 15:19 176k
FilePG 245-249 Analysis of beta casein.pdf2020-02-06 11:35 180k
FilePG 245-250 Pharmacokinetic disposition of marbofloxacin.pdf2020-02-06 11:35 760k
FilePG 245-251 Physiochemical Properties.pdf2020-02-06 11:35 492k
FilePG 245-256 Some aspects of thermo-regulation.pdf2020-02-06 11:35 1116k
FilePG 247-249 Protective effects of camel milk.pdf2020-02-06 11:35 260k
FilePG 247-250 Candida zeylanoides the major pathogenic.pdf2020-02-06 11:35 516k
FilePG 247-250 Histological and immunohistochemical.pdf2020-02-06 11:35 1948k
FilePG 247-250 Retrospective analysis.pdf2020-02-06 11:35 264k
FilePG 249-252 Comparative studies on selected enzymes.pdf2020-02-06 11:35 816k
FilePG 249-253 Differential expression the coronavirus.pdf2020-02-06 11:35 244k
FilePG 249-253 Utilization of Kachchhi Camel.pdf2020-02-06 11:35 512k
FilePG 249-263 Feeds and feeding.pdf2021-12-13 15:35 236k
FilePG 251-253 Efficacy of buserelin to induce.pdf2020-02-06 11:35 376k
FilePG 251-254 Antibacterial functions.pdf2020-02-06 11:35 176k
FilePG 251-255 The relationship between coat.pdf2020-02-06 11:35 624k
FilePG 251-256 Immunohistochemical studies.pdf2020-02-06 11:35 5648k
FilePG 251-256 Pathological disorders of the ovaries.pdf2020-02-06 11:35 4212k
FilePG 251-260 S-100 proteins expression in the.pdf2020-02-06 11:35 304k
FilePG 253-257 Histology and Ultrastructure of larynx.pdf2020-02-06 11:35 3036k
FilePG 253-258 Comparison of physico-chemical.pdf2020-02-06 11:35 844k
FilePG 255-258 Assessment of genetic.pdf2020-02-06 11:35 188k
FilePG 255-258 The relation of Mycobacterium.pdf2020-02-06 11:35 500k
FilePG 255-260 Determination of whole.pdf2020-02-06 11:35 236k
FilePG 255-263 Viability, enzymatic activity.pdf2020-02-06 11:35 516k
FilePG 257-260 Isolation, PCR amplification.pdf2020-02-06 11:35 324k
FilePG 257-262 Pathological study of camel.pdf2020-02-06 11:35 1844k
FilePG 257-262 The pharmacokinetics and disposition.pdf2020-02-06 11:35 476k
FilePG 257-264 Expression of Connexin.pdf2020-02-06 11:35 1484k
FilePG 259-260 Molecular identification.pdf2020-02-06 11:35 204k
FilePG 259-264 Observations by scanning.pdf2020-02-06 11:34 3212k
FilePG 259-265 Evaluation and comparison.pdf2020-02-06 11:35 808k
FilePG 259-267 Effect of sunflower oil.pdf2020-02-06 11:35 684k
FilePG 261-264 Parasites of one-humped.pdf2020-02-06 11:35 248k
FilePG 261-264 Seed germination test.pdf2020-02-06 11:35 284k
FilePG 261-265 Effect of itraconazole.pdf2020-02-06 11:35 180k
FilePG 261-265 Superovulation before ovum.pdf2020-02-06 11:35 248k
FilePG 263-267 Trace elements level in camels.pdf2020-02-06 11:35 304k
FilePG 263-269 Comparative transcriptome analysis.pdf2021-01-02 04:52 412k
FilePG 265-266 Rhodococcus equi isolated.pdf2021-12-13 15:36 212k
FilePG 265-269 Blood profile of kachchhi.pdf2020-02-06 11:35 780k
FilePG 265-270 Phenotypic classification based.pdf2020-02-06 11:35 1260k
FilePG 265-271 Meat quantity and quality evaluation.pdf2020-02-06 11:35 340k
FilePG 265-275 Seroprevalence and risk factors.pdf2020-02-06 11:35 188k
FilePG 267-271 Histology of atrioventricular node.pdf2020-02-06 11:35 208k
FilePG 267-271 Relationship between.pdf2020-02-06 11:35 232k
FilePG 267-273 Isolation and molecular.pdf2020-02-06 11:35 1704k
FilePG 267-276 Infertility in female dromedary.pdf2021-12-13 15:37 176k
FilePG 269-272 Effect of energy supplement fed.pdf2020-02-06 11:35 316k
FilePG 269-274 Pathological and bacteriological studies.pdf2020-02-06 11:35 3528k
FilePG 269-275 Characterization of follicular.pdf2020-02-06 11:35 904k
FilePG 271-275 Impact of age and pregnancy.pdf2021-01-02 04:54 444k
FilePG 271-275 Potential of using camel milk.pdf2020-02-06 11:35 852k
FilePG 271-278 Serum concentrations of acute phase.pdf2020-02-06 11:35 384k
FilePG 273-274 Zoonotic diseases of camelids.pdf2020-02-06 11:35 232k
FilePG 273-276 Mineral, vitamin and fatty.pdf2020-02-06 11:35 584k
FilePG 273-276 Multiple splenic abscessation.pdf2020-02-06 11:35 168k
FilePG 275-276 Diagnosis and surgical management.pdf2020-02-06 11:35 1620k
FilePG 275-287 Rapid detection of adulterated.pdf2020-02-06 11:35 248k
FilePG 277-277 Evisceration in a camel calf.pdf2020-02-06 11:35 1108k
FilePG 277-281 Effect of copper supplemented.pdf2020-02-06 11:35 652k
FilePG 277-281 Effect of fermentation.pdf2020-02-06 11:35 188k
FilePG 277-282 Effectiveness evaluation of recombinant.pdf2021-12-13 15:39 176k
FilePG 277-282 Heat stability of camel.pdf2020-02-06 11:35 1896k
FilePG 277-282 Partial sequencing and investigation.pdf2020-02-06 11:35 1044k
FilePG 277-283 Oxidative stress, histopathological.pdf2021-01-02 04:55 2332k
FilePG 277-285 Ovarian neoplasms in dromedary.pdf2020-02-06 11:35 232k
FilePG 279-283 Management of unusual.pdf2020-02-06 11:35 3564k
FilePG 279-283 Status of oxidative stress.pdf2020-02-06 11:35 296k
FilePG 281-290 Influence of bokhi on kidney.pdf2020-02-06 11:35 1892k
FilePG 283-285 Camel calf diarrhoea.pdf2020-02-06 11:35 152k
FilePG 283-285 Gastrointestinal parasites of camels.pdf2020-02-06 11:35 468k
FilePG 283-285 Voluntary feed intake.pdf2020-02-06 11:35 492k
FilePG 283-287 Ultrasonographic findings in camels.pdf2020-02-06 11:35 2144k
FilePG 283-290 DNA barcoding of mammalian.pdf2021-12-13 15:40 168k
FilePG 285-287 Schistosoma indicum.pdf2021-01-02 04:58 2180k
FilePG 285-287 Trichobezoars associated.pdf2020-02-06 11:35 1832k
FilePG 285-288 Supra-orbital nerve block.pdf2020-02-06 11:35 1364k
FilePG 287-288 Unilateral facial paralysis.pdf2020-02-06 11:35 856k
FilePG 287-290 Sertoli-Leydig cell tumour.pdf2020-02-06 11:35 204k
FilePG 287-290 Ultrasonographic findings in camel calves.pdf2020-02-06 11:35 240k
FilePG 287-296 Environmental stress.pdf2020-02-06 11:35 604k
FilePG 289-290 Dromedary mastitis caused.pdf2020-02-06 11:35 500k
FilePG 289-290 Dystocia in a camel.pdf2020-02-06 11:35 2172k
FilePG 289-293 Socio-economic dimensions.pdf2021-01-02 05:04 224k
FilePG 289-293 Types, pattern and morphology.pdf2020-02-06 11:35 2068k
FilePG 289-294 Effect of isoflurane and halothane.pdf2020-02-06 11:35 700k
FilePG 291-294 Efficiency of single-dose.pdf2020-02-06 11:35 204k
FilePG 291-294 Seroprevalence of bluetongue.pdf2020-02-06 11:35 1256k
FilePG 291-295 Alpaca Fever.pdf2021-12-13 15:41 212k
FilePG 291-299 Ultrasonographic and postmortem.pdf2020-02-06 11:35 280k
FilePG 295-298 The effects of different anaesthtic.pdf2020-02-06 11:35 620k
FilePG 295-300 Amputation of fore limb.pdf2020-02-06 11:35 6000k
FilePG 295-300 Effect of general anaesthesia.pdf2021-01-04 00:07 324k
FilePG 295-302 Hepatic cystic echinococcosis.pdf2020-02-06 11:35 264k
FilePG 297-302 Biomarkers of stress in healthy.pdf2021-12-13 15:42 180k
FilePG 297-304 Thermoregulation and blood.pdf2020-02-06 11:35 732k
FilePG 299-301 Clinical evaluation of fractures.pdf2020-02-06 11:35 1044k
FilePG 301-304 Transcriptome alterations in high.pdf2021-01-02 05:05 316k
FilePG 301-308 Ultrasonographic....urinary affections.pdf2020-02-06 11:35 280k
FilePG 303-304 Anotia and accessory mandible.pdf2020-02-06 11:35 780k
FilePG 303-306 Urinalysis of pregnant.pdf2020-02-06 11:35 232k
FilePG 303-311 A histochemical and immunohistochemical.pdf2021-12-13 15:43 208k
FilePG 305-308 Hump Biopsy on large.pdf2020-02-06 11:35 2144k
FilePG 305-308 Trypanosoma evansi abortionv.pdf2021-01-02 05:06 1512k
FilePG 305-318 Tympanic membran.pdf2020-02-06 11:35 6568k
FilePG 307-309 Effect of different levels.pdf2020-02-06 11:35 260k
FilePG 309-312 Gross morphology and histological.pdf2020-02-06 11:35 324k
FilePG 309-315 Pathological studies on mixed.pdf2020-02-06 11:35 8344k
FilePG 309-315 Vitamin B1, B2, B6.pdf2021-01-02 05:10 308k
FilePG 311-311 Adhesive pleurisy of both lungs.pdf2020-02-06 11:35 1236k
FilePG 313-318 Ultrasonography of the thorax.pdf2021-12-13 15:45 156k
FilePG 313-319 Financial viability of range.pdf2020-02-06 11:35 224k
FilePG 317-321 Evaluation of total mix ration.pdf2021-01-02 05:11 228k
FilePG 319-325 Physiological perspective of milk.pdf2021-12-13 15:46 200k
FilePG 321-326 Composition of ghee prepared.pdf2020-02-06 11:35 208k
FilePG 323-328 Gross anatomical peculiarities.pdf2021-01-02 05:12 1576k
FilePG 327-336 Mold contamination and total.pdf2021-12-13 15:47 184k
FilePG 329-332 Hyalomma dromedarii ticks.pdf2021-01-02 05:14 244k
FilePG 333-337 Lung lesions on camels.pdf2021-01-02 05:16 1760k
FilePG 337-340 Clinical management of sarcoptic.pdf2021-12-13 15:47 1632k
FilePG 337-344 Rectal Prolapse in Dromedary.pdf2020-02-06 11:35 26848k
FilePG 339-340 Lumpy jaw and wooden.pdf2021-01-02 05:55 2656k
FilePG 341-343 Use of salicylic acid.pdf2021-01-02 05:57 1084k
FilePG 341-348 Distribution and expression pattern.pdf2021-12-13 15:48 3040k
FilePG 345-349 Some productive characteristics.pdf2021-01-02 05:58 256k
FilePG 349-353 Isolation and characterisation of Bactrian.pdf2021-12-13 15:50 628k
FilePG 351-357 Morphological observation.pdf2021-01-02 06:01 4588k
FilePG 355-359 Infrared thermography in dromedary.pdf2021-12-13 15:51 1636k
FilePG 359-366 Distal limb lameness.pdf2021-01-02 06:03 2916k
FilePG 361-366 Analysis of hair quality.pdf2021-12-13 15:52 256k
FilePG 367-370 Dermatophytosis in a nomadic.pdf2021-01-02 06:04 600k
FilePG 367-371 In vitro activity.pdf2021-12-13 15:53 376k
FilePG 373-376 Testosterone and growth hormone.pdf2021-12-13 15:54 216k
FilePG 377-382 Antioxidant effect of camel.pdf2021-12-13 15:55 404k
FilePG 383-393 Camel culture in Turkey.pdf2021-12-13 15:56 1552k
Proudly Served by LiteSpeed Web Server at camelsandcamelids.com Port 443